Location: Observatory
(52.1446°N, 0.4624°W)
Time: 02:05:44
(UTC+01:00)

ISS - Pass Details

Date: 21 May 2018
Orbit: 402 x 406 km, 51.6° (Epoch: 21 June)

Event Time Altitude Azimuth Distance (km) Brightness Sun altitude
Rises 01:13:39 0° 267° (W) 2,319 0.0 -17.6°
Reaches altitude 10° 01:15:44 10° 267° (W) 1,459 -1.1 -17.6°
Maximum altitude 01:19:01 84° 179° (S) 411 -4.0 -17.6°
Drops below altitude 10° 01:22:17 10° 91° (E) 1,459 -1.0 -17.5°
Sets 01:24:22 0° 91° (E) 2,318 0.1 -17.5°
